EFHKFMI Weather Reports


time (UTC)temp
C
wind
direction
speed
KPH
gust
KPH
rain 1hr
cm
rain 24hr
cm
rain mn
cm
humidity
%
barometer
mb
20260508110729 14 333 17.7 35.4 0.00 0.00 0.00 24 1026.3
20260508104729 12 355 19.3 29.0 0.00 0.00 0.00 24 1026.3
20260508102729 12 10 20.9 32.2 0.00 0.00 0.00 25 1026.2
20260508100728 13 341 17.7 38.6 0.00 0.00 0.00 26 1026.2
20260508094728 12 19 16.1 35.4 0.00 0.00 0.00 28 1026.1
20260508092728 12 358 16.1 32.2 0.00 0.00 0.00 28 1026.1
20260508090728 12 18 22.5 33.8 0.00 0.00 0.00 30 1026.2
20260508084728 11 350 17.7 25.7 0.00 0.00 0.00 31 1026.2
20260508082728 11 6 17.7 29.0 0.00 0.00 0.00 34 1026.3
20260508074728 11 20 20.9 30.6 0.00 0.00 0.00 33 1026.0
20260508072728 10 14 19.3 27.4 0.00 0.00 0.00 34 1025.9
20260508070729 10 360 19.3 27.4 0.00 0.00 0.00 36 1025.7
20260508064728 9 2 20.9 30.6 0.00 0.00 0.00 38 1025.6
20260508062727 8 359 19.3 25.7 0.00 0.00 0.00 40 1025.4
20260508060728 8 341 22.5 30.6 0.00 0.00 0.00 44 1025.2
20260508054728 8 350 17.7 25.7 0.00 0.00 0.00 46 1025.0
20260508052728 7 348 16.1 20.9 0.00 0.00 0.00 50 1024.8
20260508050728 6 349 16.1 22.5 0.00 0.00 0.00 52 1024.6
20260508044727 5 348 14.5 19.3 0.00 0.00 0.00 54 1024.5
20260508042727 5 351 14.5 20.9 0.00 0.00 0.00 55 1024.4
20260508040727 4 345 14.5 17.7 0.00 0.00 0.00 57 1024.2
20260508034727 3 350 14.5 17.7 0.00 0.00 0.00 59 1023.9
20260508032728 2 353 14.5 17.7 0.00 0.00 0.00 60 1023.6
20260508030727 2 343 11.3 14.5 0.00 0.00 0.00 62 1023.5
20260508024726 1 344 14.5 16.1 0.00 0.00 0.00 64 1023.2
20260508022727 1 343 12.9 14.5 0.00 0.00 0.00 64 1023.0
20260508020727 1 341 12.9 14.5 0.00 0.00 0.00 63 1022.8
20260508014727 1 339 14.5 14.5 0.00 0.00 0.00 64 1022.6
20260508012727 2 336 11.3 14.5 0.00 0.00 0.00 63 1022.4
20260508010727 2 339 12.9 14.5 0.00 0.00 0.00 60 1022.1
20260508004727 3 344 12.9 16.1 0.00 0.00 0.00 58 1021.9
20260508002727 3 351 14.5 17.7 0.00 0.00 0.00 56 1021.6
20260508000727 3 346 14.5 20.9 0.00 0.00 0.00 56 1021.3
20260507234726 3 337 14.5 17.7 0.00 0.00 0.00 56 1021.1
20260507232726 2 328 12.9 14.5 0.00 0.00 0.00 57 1020.9
20260507230726 3 325 12.9 14.5 0.00 0.00 0.00 56 1020.6
20260507224726 3 323 14.5 16.1 0.00 0.00 0.00 54 1020.3
20260507222727 4 322 14.5 16.1 0.00 0.00 0.00 50 1020.1
20260507220726 4 328 14.5 17.7 0.00 0.00 0.00 47 1019.9
20260507214726 4 329 12.9 14.5 0.00 0.00 0.00 47 1019.6
20260507212726 4 328 14.5 16.1 0.00 0.00 0.00 47 1019.4
20260507210726 4 327 14.5 16.1 0.00 0.00 0.00 49 1019.1
20260507204726 4 328 12.9 14.5 0.00 0.00 0.00 48 1018.8
20260507202726 5 331 14.5 16.1 0.00 0.00 0.00 43 1018.6
20260507194726 4 275 9.7 17.7 0.00 0.00 0.00 49 1018.1
20260507192726 5 278 6.4 9.7 0.00 0.00 0.00 49 1017.8
20260507190725 6 271 6.4 9.7 0.00 0.00 0.00 40 1017.5
20260507184726 9 241 6.4 9.7 0.00 0.00 0.00 31 1017.2
20260507182725 9 211 9.7 12.9 0.00 0.00 0.00 30 1017.0
20260507180725 9 202 11.3 14.5 0.00 0.00 0.00 30 1016.8
20260507174725 10 199 14.5 20.9 0.00 0.00 0.00 30 1016.8
20260507172725 10 202 17.7 22.5 0.00 0.00 0.00 29 1016.6
20260507170725 10 210 17.7 22.5 0.00 0.00 0.00 29 1016.5
20260507165054 11 203 20.9 25.7 0.00 0.00 0.00 28 1016.5
20260507162725 11 205 19.3 24.1 0.00 0.00 0.00 26 1016.3
20260507160725 12 196 19.3 24.1 0.00 0.00 0.00 27 1016.1
20260507154725 11 166 22.5 27.4 0.00 0.00 0.00 25 1016.0
20260507152724 12 179 19.3 25.7 0.00 0.00 0.00 25 1015.8
20260507144725 12 178 19.3 25.7 0.00 0.00 0.00 25 1015.8
20260507142725 13 165 17.7 27.4 0.00 0.00 0.00 22 1015.6
20260507140725 12 163 11.3 22.5 0.00 0.00 0.00 22 1015.5
20260507134724 12 144 14.5 24.1 0.00 0.00 0.00 22 1015.5
20260507132724 12 155 16.1 24.1 0.00 0.00 0.00 23 1015.5
20260507130724 13 199 16.1 24.1 0.00 0.00 0.00 22 1015.6
20260507122724 12 200 17.7 27.4 0.00 0.00 0.00 25 1015.5
20260507120724 13 152 17.7 27.4 0.00 0.00 0.00 25 1015.4